M I D A S
Marine Information and Data Acquisition System
Tripno 1428 of the Zeeleeuw from 2008-02-25 07:37:06 to 2008-02-25 14:37:06
Back to CruiseResearch ActivitiesStationsMapUnderway DataData graphs

EquipmentUnitsComments
TimeDGPSUTC
LatitudeDGPSDM.mWGS84
LongitudeDGPSDM.mWGS84
SpeedMeteo Stationm/sRelative wind speed
DirectionMeteo StationdegRelative wind direction
TemperatureMeteo Stationdeg CelciusAir temperature
PressureMeteo StationPaAtmospheric pressure
HumidityMeteo Station%Relative humidity
Missing or incorrect values are displayed as -999
Metereological data collected by the RV Zeeleeuw from 2008-02-25 07:27:03 to 2008-02-25 14:47:41
Time Latitude Longitude Speed Direction Temperature Pressure Humidity
2008-02-25 07:28 51°13.664 2°55.955 -999 -999 -999 -999 -999
2008-02-25 07:29 51°13.665 2°55.956 -999 -999 -999 -999 -999
2008-02-25 07:30 51°13.665 2°55.956 -999 -999 -999 -999 -999
2008-02-25 07:31 51°13.665 2°55.956 -999 -999 -999 -999 -999
2008-02-25 07:32 51°13.665 2°55.956 -999 -999 -999 -999 -999
2008-02-25 07:33 51°13.665 2°55.955 -999 -999 -999 -999 -999
2008-02-25 07:34 51°13.665 2°55.955 -999 -999 -999 -999 -999
2008-02-25 07:35 51°13.665 2°55.955 -999 -999 -999 -999 -999
2008-02-25 07:36 51°13.666 2°55.956 -999 -999 -999 -999 -999
2008-02-25 07:37 51°13.665 2°55.955 -999 -999 -999 -999 -999
2008-02-25 07:38 51°13.663 2°55.955 -999 -999 -999 -999 -999
2008-02-25 07:39 51°13.677 2°55.897 -999 -999 -999 -999 -999
2008-02-25 07:40 51°13.691 2°55.805 -999 -999 -999 -999 -999
2008-02-25 07:41 51°13.692 2°55.742 -999 -999 -999 -999 -999
2008-02-25 07:42 51°13.705 2°55.747 -999 -999 -999 -999 -999
2008-02-25 07:43 51°13.765 2°55.709 -999 -999 -999 -999 -999
2008-02-25 07:44 51°13.862 2°55.616 -999 -999 -999 -999 -999
2008-02-25 07:45 51°13.976 2°55.53 -999 -999 -999 -999 -999
2008-02-25 07:46 51°14.076 2°55.458 -999 -999 -999 -999 -999
2008-02-25 07:47 51°14.176 2°55.375 -999 -999 -999 -999 -999
2008-02-25 07:48 51°14.295 2°55.209 -999 -999 -999 -999 -999
2008-02-25 07:49 51°14.396 2°54.965 -999 -999 -999 -999 -999
2008-02-25 07:50 51°14.547 2°54.737 -999 -999 -999 -999 -999
2008-02-25 07:51 51°14.715 2°54.535 -999 -999 -999 -999 -999
2008-02-25 07:52 51°14.886 2°54.345 -999 -999 -999 -999 -999
2008-02-25 07:53 51°15.059 2°54.17 -999 -999 -999 -999 -999
2008-02-25 07:54 51°15.237 2°54.003 -999 -999 -999 -999 -999
2008-02-25 07:55 51°15.421 2°53.852 -999 -999 -999 -999 -999
2008-02-25 07:56 51°15.602 2°53.688 -999 -999 -999 -999 -999
2008-02-25 07:57 51°15.787 2°53.53 -999 -999 -999 -999 -999
2008-02-25 07:58 51°15.972 2°53.369 -999 -999 -999 -999 -999
2008-02-25 07:59 51°16.156 2°53.208 -999 -999 -999 -999 -999
2008-02-25 08:00 51°16.344 2°53.06 -999 -999 -999 -999 -999
2008-02-25 08:01 51°16.532 2°52.914 -999 -999 -999 -999 -999
2008-02-25 08:02 51°16.72 2°52.769 -999 -999 -999 -999 -999
2008-02-25 08:03 51°16.908 2°52.632 -999 -999 -999 -999 -999
2008-02-25 08:04 51°17.096 2°52.494 -999 -999 -999 -999 -999
2008-02-25 08:05 51°17.283 2°52.348 -999 -999 -999 -999 -999
2008-02-25 08:06 51°17.445 2°52.142 -999 -999 -999 -999 -999
2008-02-25 08:07 51°17.548 2°51.843 -999 -999 -999 -999 -999
2008-02-25 08:08 51°17.654 2°51.544 -999 -999 -999 -999 -999
2008-02-25 08:09 51°17.747 2°51.232 -999 -999 -999 -999 -999
2008-02-25 08:10 51°17.846 2°50.919 -999 -999 -999 -999 -999
2008-02-25 08:11 51°17.948 2°50.606 -999 -999 -999 -999 -999
2008-02-25 08:12 51°18.048 2°50.289 -999 -999 -999 -999 -999
2008-02-25 08:13 51°18.146 2°49.967 -999 -999 -999 -999 -999
2008-02-25 08:14 51°18.216 2°49.628 -999 -999 -999 -999 -999
2008-02-25 08:15 51°18.289 2°49.291 -999 -999 -999 -999 -999
2008-02-25 08:16 51°18.362 2°48.954 -999 -999 -999 -999 -999
2008-02-25 08:17 51°18.436 2°48.615 -999 -999 -999 -999 -999
2008-02-25 08:18 51°18.514 2°48.275 -999 -999 -999 -999 -999
2008-02-25 08:19 51°18.575 2°47.926 -999 -999 -999 -999 -999
2008-02-25 08:20 51°18.641 2°47.579 -999 -999 -999 -999 -999
2008-02-25 08:21 51°18.704 2°47.232 -999 -999 -999 -999 -999
2008-02-25 08:22 51°18.766 2°46.885 -999 -999 -999 -999 -999
2008-02-25 08:23 51°18.829 2°46.538 -999 -999 -999 -999 -999
2008-02-25 08:24 51°18.897 2°46.194 -999 -999 -999 -999 -999
2008-02-25 08:25 51°18.972 2°45.853 -999 -999 -999 -999 -999
2008-02-25 08:26 51°19.048 2°45.51 -999 -999 -999 -999 -999
2008-02-25 08:27 51°19.127 2°45.166 -999 -999 -999 -999 -999
2008-02-25 08:28 51°19.208 2°44.821 -999 -999 -999 -999 -999
2008-02-25 08:29 51°19.291 2°44.475 -999 -999 -999 -999 -999
2008-02-25 08:30 51°19.371 2°44.137 -999 -999 -999 -999 -999
2008-02-25 08:31 51°19.45 2°43.801 -999 -999 -999 -999 -999
2008-02-25 08:32 51°19.528 2°43.465 -999 -999 -999 -999 -999
2008-02-25 08:33 51°19.602 2°43.125 -999 -999 -999 -999 -999
2008-02-25 08:34 51°19.68 2°42.786 -999 -999 -999 -999 -999
2008-02-25 08:35 51°19.756 2°42.446 -999 -999 -999 -999 -999
2008-02-25 08:36 51°19.833 2°42.105 -999 -999 -999 -999 -999
2008-02-25 08:37 51°19.91 2°41.763 -999 -999 -999 -999 -999
2008-02-25 08:38 51°19.986 2°41.42 -999 -999 -999 -999 -999
2008-02-25 08:39 51°20.062 2°41.075 -999 -999 -999 -999 -999
2008-02-25 08:40 51°20.124 2°40.723 -999 -999 -999 -999 -999
2008-02-25 08:41 51°20.169 2°40.365 -999 -999 -999 -999 -999
2008-02-25 08:42 51°20.216 2°40.007 -999 -999 -999 -999 -999
2008-02-25 08:43 51°20.263 2°39.648 -999 -999 -999 -999 -999
2008-02-25 08:44 51°20.311 2°39.29 -999 -999 -999 -999 -999
2008-02-25 08:45 51°20.359 2°38.93 -999 -999 -999 -999 -999
2008-02-25 08:46 51°20.41 2°38.57 -999 -999 -999 -999 -999
2008-02-25 08:47 51°20.46 2°38.208 -999 -999 -999 -999 -999
2008-02-25 08:48 51°20.511 2°37.845 -999 -999 -999 -999 -999
2008-02-25 08:49 51°20.561 2°37.481 -999 -999 -999 -999 -999
2008-02-25 08:50 51°20.613 2°37.116 -999 -999 -999 -999 -999
2008-02-25 08:51 51°20.66 2°36.753 -999 -999 -999 -999 -999
2008-02-25 08:52 51°20.708 2°36.388 -999 -999 -999 -999 -999
2008-02-25 08:53 51°20.756 2°36.022 -999 -999 -999 -999 -999
2008-02-25 08:54 51°20.804 2°35.657 -999 -999 -999 -999 -999
2008-02-25 08:55 51°20.852 2°35.292 -999 -999 -999 -999 -999
2008-02-25 08:56 51°20.899 2°34.926 -999 -999 -999 -999 -999
2008-02-25 08:57 51°20.964 2°34.575 -999 -999 -999 -999 -999
2008-02-25 08:58 51°21.122 2°34.353 -999 -999 -999 -999 -999
2008-02-25 08:59 51°21.313 2°34.295 -999 -999 -999 -999 -999
2008-02-25 09:00 51°21.513 2°34.258 -999 -999 -999 -999 -999
2008-02-25 09:01 51°21.717 2°34.215 -999 -999 -999 -999 -999
2008-02-25 09:02 51°21.921 2°34.165 -999 -999 -999 -999 -999
2008-02-25 09:03 51°22.13 2°34.115 -999 -999 -999 -999 -999
2008-02-25 09:04 51°22.336 2°34.046 -999 -999 -999 -999 -999
2008-02-25 09:05 51°22.494 2°33.807 -999 -999 -999 -999 -999
2008-02-25 09:06 51°22.551 2°33.44 -999 -999 -999 -999 -999
2008-02-25 09:07 51°22.599 2°33.063 -999 -999 -999 -999 -999
2008-02-25 09:08 51°22.644 2°32.685 -999 -999 -999 -999 -999
2008-02-25 09:09 51°22.68 2°32.303 -999 -999 -999 -999 -999
2008-02-25 09:10 51°22.71 2°31.917 -999 -999 -999 -999 -999
2008-02-25 09:11 51°22.72 2°31.528 -999 -999 -999 -999 -999
2008-02-25 09:12 51°22.713 2°31.135 -999 -999 -999 -999 -999
2008-02-25 09:13 51°22.707 2°30.741 -999 -999 -999 -999 -999
2008-02-25 09:14 51°22.702 2°30.351 -999 -999 -999 -999 -999
2008-02-25 09:15 51°22.695 2°29.962 -999 -999 -999 -999 -999
2008-02-25 09:16 51°22.688 2°29.572 -999 -999 -999 -999 -999
2008-02-25 09:17 51°22.681 2°29.181 -999 -999 -999 -999 -999
2008-02-25 09:18 51°22.674 2°28.792 -999 -999 -999 -999 -999
2008-02-25 09:19 51°22.657 2°28.399 -999 -999 -999 -999 -999
2008-02-25 09:20 51°22.638 2°28.004 -999 -999 -999 -999 -999
2008-02-25 09:21 51°22.62 2°27.609 -999 -999 -999 -999 -999
2008-02-25 09:22 51°22.6 2°27.215 -999 -999 -999 -999 -999
2008-02-25 09:23 51°22.581 2°26.824 -999 -999 -999 -999 -999
2008-02-25 09:24 51°22.58 2°26.438 -999 -999 -999 -999 -999
2008-02-25 09:25 51°22.665 2°26.095 -999 -999 -999 -999 -999
2008-02-25 09:26 51°22.804 2°25.803 -999 -999 -999 -999 -999
2008-02-25 09:27 51°22.965 2°25.558 -999 -999 -999 -999 -999
2008-02-25 09:28 51°23.164 2°25.513 -999 -999 -999 -999 -999
2008-02-25 09:29 51°23.367 2°25.541 -999 -999 -999 -999 -999
2008-02-25 09:30 51°23.572 2°25.561 -999 -999 -999 -999 -999
2008-02-25 09:31 51°23.777 2°25.576 -999 -999 -999 -999 -999
2008-02-25 09:32 51°23.982 2°25.59 -999 -999 -999 -999 -999
2008-02-25 09:33 51°24.187 2°25.613 -999 -999 -999 -999 -999
2008-02-25 09:34 51°24.391 2°25.636 -999 -999 -999 -999 -999
2008-02-25 09:35 51°24.592 2°25.659 -999 -999 -999 -999 -999
2008-02-25 09:36 51°24.793 2°25.681 -999 -999 -999 -999 -999
2008-02-25 09:37 51°24.995 2°25.704 -999 -999 -999 -999 -999
2008-02-25 09:38 51°25.193 2°25.723 -999 -999 -999 -999 -999
2008-02-25 09:39 51°25.389 2°25.74 -999 -999 -999 -999 -999
2008-02-25 09:40 51°25.584 2°25.758 -999 -999 -999 -999 -999
2008-02-25 09:41 51°25.779 2°25.775 -999 -999 -999 -999 -999
2008-02-25 09:42 51°25.973 2°25.791 -999 -999 -999 -999 -999
2008-02-25 09:43 51°26.166 2°25.809 -999 -999 -999 -999 -999
2008-02-25 09:44 51°26.361 2°25.827 -999 -999 -999 -999 -999
2008-02-25 09:45 51°26.556 2°25.848 -999 -999 -999 -999 -999
2008-02-25 09:46 51°26.752 2°25.87 -999 -999 -999 -999 -999
2008-02-25 09:47 51°26.949 2°25.892 -999 -999 -999 -999 -999
2008-02-25 09:48 51°27.147 2°25.913 -999 -999 -999 -999 -999
2008-02-25 09:49 51°27.344 2°25.936 -999 -999 -999 -999 -999
2008-02-25 09:50 51°27.543 2°25.96 -999 -999 -999 -999 -999
2008-02-25 09:51 51°27.741 2°25.985 -999 -999 -999 -999 -999
2008-02-25 09:52 51°27.935 2°26.011 -999 -999 -999 -999 -999
2008-02-25 09:53 51°28.133 2°26.01 -999 -999 -999 -999 -999
2008-02-25 09:54 51°28.333 2°25.976 -999 -999 -999 -999 -999
2008-02-25 09:55 51°28.529 2°25.883 -999 -999 -999 -999 -999
2008-02-25 09:56 51°28.716 2°25.744 -999 -999 -999 -999 -999
2008-02-25 09:57 51°28.905 2°25.611 -999 -999 -999 -999 -999
2008-02-25 09:58 51°29.091 2°25.48 -999 -999 -999 -999 -999
2008-02-25 09:59 51°29.279 2°25.355 -999 -999 -999 -999 -999
2008-02-25 10:00 51°29.463 2°25.228 -999 -999 -999 -999 -999
2008-02-25 10:01 51°29.65 2°25.102 -999 -999 -999 -999 -999
2008-02-25 10:02 51°29.841 2°24.98 -999 -999 -999 -999 -999
2008-02-25 10:03 51°30.028 2°24.844 -999 -999 -999 -999 -999
2008-02-25 10:04 51°30.218 2°24.768 -999 -999 -999 -999 -999
2008-02-25 10:05 51°30.391 2°24.846 -999 -999 -999 -999 -999
2008-02-25 10:06 51°30.561 2°24.966 -999 -999 -999 -999 -999
2008-02-25 10:07 51°30.722 2°25.086 -999 -999 -999 -999 -999
2008-02-25 10:08 51°30.885 2°25.212 -999 -999 -999 -999 -999
2008-02-25 10:09 51°31.049 2°25.345 -999 -999 -999 -999 -999
2008-02-25 10:10 51°31.211 2°25.482 -999 -999 -999 -999 -999
2008-02-25 10:11 51°31.371 2°25.62 -999 -999 -999 -999 -999
2008-02-25 10:12 51°31.527 2°25.766 -999 -999 -999 -999 -999
2008-02-25 10:13 51°31.681 2°25.908 -999 -999 -999 -999 -999
2008-02-25 10:14 51°31.839 2°26.053 -999 -999 -999 -999 -999
2008-02-25 10:15 51°32 2°26.199 -999 -999 -999 -999 -999
2008-02-25 10:16 51°32.158 2°26.344 -999 -999 -999 -999 -999
2008-02-25 10:17 51°32.318 2°26.487 -999 -999 -999 -999 -999
2008-02-25 10:18 51°32.478 2°26.631 -999 -999 -999 -999 -999
2008-02-25 10:19 51°32.638 2°26.776 -999 -999 -999 -999 -999
2008-02-25 10:20 51°32.794 2°26.931 -999 -999 -999 -999 -999
2008-02-25 10:21 51°32.954 2°27.082 -999 -999 -999 -999 -999
2008-02-25 10:22 51°33.111 2°27.23 -999 -999 -999 -999 -999
2008-02-25 10:23 51°33.27 2°27.378 -999 -999 -999 -999 -999
2008-02-25 10:24 51°33.429 2°27.527 -999 -999 -999 -999 -999
2008-02-25 10:25 51°33.588 2°27.676 -999 -999 -999 -999 -999
2008-02-25 10:26 51°33.745 2°27.825 -999 -999 -999 -999 -999
2008-02-25 10:27 51°33.907 2°27.976 -999 -999 -999 -999 -999
2008-02-25 10:28 51°34.064 2°28.122 -999 -999 -999 -999 -999
2008-02-25 10:29 51°34.224 2°28.273 -999 -999 -999 -999 -999
2008-02-25 10:30 51°34.386 2°28.426 -999 -999 -999 -999 -999
2008-02-25 10:31 51°34.544 2°28.577 -999 -999 -999 -999 -999
2008-02-25 10:32 51°34.701 2°28.725 -999 -999 -999 -999 -999
2008-02-25 10:33 51°34.861 2°28.878 -999 -999 -999 -999 -999
2008-02-25 10:34 51°35.017 2°29.026 -999 -999 -999 -999 -999
2008-02-25 10:35 51°35.176 2°29.179 -999 -999 -999 -999 -999
2008-02-25 10:36 51°35.329 2°29.338 -999 -999 -999 -999 -999
2008-02-25 10:37 51°35.481 2°29.498 -999 -999 -999 -999 -999
2008-02-25 10:38 51°35.632 2°29.655 -999 -999 -999 -999 -999
2008-02-25 10:39 51°35.783 2°29.814 -999 -999 -999 -999 -999
2008-02-25 10:40 51°35.936 2°29.969 -999 -999 -999 -999 -999
2008-02-25 10:41 51°36.09 2°30.124 -999 -999 -999 -999 -999
2008-02-25 10:42 51°36.245 2°30.283 -999 -999 -999 -999 -999
2008-02-25 10:43 51°36.394 2°30.438 -999 -999 -999 -999 -999
2008-02-25 10:44 51°36.546 2°30.594 -999 -999 -999 -999 -999
2008-02-25 10:45 51°36.697 2°30.752 -999 -999 -999 -999 -999
2008-02-25 10:46 51°36.849 2°30.91 -999 -999 -999 -999 -999
2008-02-25 10:47 51°37.002 2°31.07 -999 -999 -999 -999 -999
2008-02-25 10:48 51°37.151 2°31.227 -999 -999 -999 -999 -999
2008-02-25 10:49 51°37.305 2°31.386 -999 -999 -999 -999 -999
2008-02-25 10:50 51°37.453 2°31.54 -999 -999 -999 -999 -999
2008-02-25 10:51 51°37.608 2°31.7 -999 -999 -999 -999 -999
2008-02-25 10:52 51°37.758 2°31.856 -999 -999 -999 -999 -999
2008-02-25 10:53 51°37.912 2°32.015 -999 -999 -999 -999 -999
2008-02-25 10:54 51°38.065 2°32.171 -999 -999 -999 -999 -999
2008-02-25 10:55 51°38.218 2°32.328 -999 -999 -999 -999 -999
2008-02-25 10:56 51°38.372 2°32.489 -999 -999 -999 -999 -999
2008-02-25 10:57 51°38.526 2°32.648 -999 -999 -999 -999 -999
2008-02-25 10:58 51°38.681 2°32.807 -999 -999 -999 -999 -999
2008-02-25 10:59 51°38.837 2°32.968 -999 -999 -999 -999 -999
2008-02-25 11:00 51°38.992 2°33.129 -999 -999 -999 -999 -999
2008-02-25 11:01 51°39.146 2°33.29 -999 -999 -999 -999 -999
2008-02-25 11:02 51°39.3 2°33.454 -999 -999 -999 -999 -999
2008-02-25 11:03 51°39.455 2°33.618 -999 -999 -999 -999 -999
2008-02-25 11:04 51°39.612 2°33.785 -999 -999 -999 -999 -999
2008-02-25 11:05 51°39.77 2°33.95 -999 -999 -999 -999 -999
2008-02-25 11:06 51°39.928 2°34.116 -999 -999 -999 -999 -999
2008-02-25 11:07 51°40.086 2°34.279 -999 -999 -999 -999 -999
2008-02-25 11:08 51°40.242 2°34.443 -999 -999 -999 -999 -999
2008-02-25 11:09 51°40.399 2°34.608 -999 -999 -999 -999 -999
2008-02-25 11:10 51°40.556 2°34.773 -999 -999 -999 -999 -999
2008-02-25 11:11 51°40.714 2°34.937 -999 -999 -999 -999 -999
2008-02-25 11:12 51°40.873 2°35.102 -999 -999 -999 -999 -999
2008-02-25 11:13 51°41.031 2°35.265 -999 -999 -999 -999 -999
2008-02-25 11:14 51°41.189 2°35.426 -999 -999 -999 -999 -999
2008-02-25 11:15 51°41.343 2°35.596 -999 -999 -999 -999 -999
2008-02-25 11:16 51°41.419 2°35.862 -999 -999 -999 -999 -999
2008-02-25 11:17 51°41.319 2°36.132 -999 -999 -999 -999 -999
2008-02-25 11:18 51°41.21 2°36.415 -999 -999 -999 -999 -999
2008-02-25 11:19 51°41.106 2°36.693 -999 -999 -999 -999 -999
2008-02-25 11:20 51°41 2°36.991 -999 -999 -999 -999 -999
2008-02-25 11:21 51°40.894 2°37.283 -999 -999 -999 -999 -999
2008-02-25 11:22 51°40.787 2°37.576 -999 -999 -999 -999 -999
2008-02-25 11:23 51°40.68 2°37.869 -999 -999 -999 -999 -999
2008-02-25 11:24 51°40.574 2°38.162 -999 -999 -999 -999 -999
2008-02-25 11:25 51°40.464 2°38.453 -999 -999 -999 -999 -999
2008-02-25 11:26 51°40.358 2°38.743 -999 -999 -999 -999 -999
2008-02-25 11:27 51°40.256 2°39.028 -999 -999 -999 -999 -999
2008-02-25 11:28 51°40.15 2°39.319 -999 -999 -999 -999 -999
2008-02-25 11:29 51°40.044 2°39.613 -999 -999 -999 -999 -999
2008-02-25 11:30 51°39.94 2°39.902 -999 -999 -999 -999 -999
2008-02-25 11:31 51°39.836 2°40.191 -999 -999 -999 -999 -999
2008-02-25 11:32 51°39.734 2°40.481 -999 -999 -999 -999 -999
2008-02-25 11:33 51°39.629 2°40.77 -999 -999 -999 -999 -999
2008-02-25 11:34 51°39.528 2°41.06 -999 -999 -999 -999 -999
2008-02-25 11:35 51°39.424 2°41.342 -999 -999 -999 -999 -999
2008-02-25 11:36 51°39.324 2°41.626 -999 -999 -999 -999 -999
2008-02-25 11:37 51°39.213 2°41.906 -999 -999 -999 -999 -999
2008-02-25 11:38 51°39.031 2°42.043 -999 -999 -999 -999 -999
2008-02-25 11:39 51°38.814 2°42.119 -999 -999 -999 -999 -999
2008-02-25 11:40 51°38.592 2°42.177 -999 -999 -999 -999 -999
2008-02-25 11:41 51°38.367 2°42.232 -999 -999 -999 -999 -999
2008-02-25 11:42 51°38.139 2°42.271 -999 -999 -999 -999 -999
2008-02-25 11:43 51°37.908 2°42.234 -999 -999 -999 -999 -999
2008-02-25 11:44 51°37.677 2°42.167 -999 -999 -999 -999 -999
2008-02-25 11:45 51°37.455 2°42.045 -999 -999 -999 -999 -999
2008-02-25 11:46 51°37.287 2°41.795 -999 -999 -999 -999 -999
2008-02-25 11:47 51°37.279 2°41.435 -999 -999 -999 -999 -999
2008-02-25 11:48 51°37.303 2°41.061 -999 -999 -999 -999 -999
2008-02-25 11:49 51°37.324 2°40.688 -999 -999 -999 -999 -999
2008-02-25 11:50 51°37.345 2°40.316 -999 -999 -999 -999 -999
2008-02-25 11:51 51°37.363 2°39.948 -999 -999 -999 -999 -999
2008-02-25 11:52 51°37.379 2°39.581 -999 -999 -999 -999 -999
2008-02-25 11:53 51°37.392 2°39.214 -999 -999 -999 -999 -999
2008-02-25 11:54 51°37.404 2°38.848 -999 -999 -999 -999 -999
2008-02-25 11:55 51°37.417 2°38.483 -999 -999 -999 -999 -999
2008-02-25 11:56 51°37.427 2°38.115 -999 -999 -999 -999 -999
2008-02-25 11:57 51°37.438 2°37.75 -999 -999 -999 -999 -999
2008-02-25 11:58 51°37.45 2°37.385 -999 -999 -999 -999 -999
2008-02-25 11:59 51°37.46 2°37.02 -999 -999 -999 -999 -999
2008-02-25 12:00 51°37.471 2°36.655 -999 -999 -999 -999 -999
2008-02-25 12:01 51°37.481 2°36.29 -999 -999 -999 -999 -999
2008-02-25 12:02 51°37.489 2°35.924 -999 -999 -999 -999 -999
2008-02-25 12:03 51°37.497 2°35.556 -999 -999 -999 -999 -999
2008-02-25 12:04 51°37.506 2°35.187 -999 -999 -999 -999 -999
2008-02-25 12:05 51°37.517 2°34.819 -999 -999 -999 -999 -999
2008-02-25 12:06 51°37.531 2°34.447 -999 -999 -999 -999 -999
2008-02-25 12:07 51°37.503 2°34.094 -999 -999 -999 -999 -999
2008-02-25 12:08 51°37.369 2°33.84 -999 -999 -999 -999 -999
2008-02-25 12:09 51°37.177 2°33.702 -999 -999 -999 -999 -999
2008-02-25 12:10 51°36.976 2°33.568 -999 -999 -999 -999 -999
2008-02-25 12:11 51°36.771 2°33.443 -999 -999 -999 -999 -999
2008-02-25 12:12 51°36.566 2°33.327 -999 -999 -999 -999 -999
2008-02-25 12:13 51°36.36 2°33.21 -999 -999 -999 -999 -999
2008-02-25 12:14 51°36.154 2°33.103 -999 -999 -999 -999 -999
2008-02-25 12:15 51°35.946 2°32.995 -999 -999 -999 -999 -999
2008-02-25 12:16 51°35.739 2°32.888 -999 -999 -999 -999 -999
2008-02-25 12:17 51°35.532 2°32.781 -999 -999 -999 -999 -999
2008-02-25 12:18 51°35.325 2°32.675 -999 -999 -999 -999 -999
2008-02-25 12:19 51°35.117 2°32.579 -999 -999 -999 -999 -999
2008-02-25 12:20 51°34.909 2°32.485 -999 -999 -999 -999 -999
2008-02-25 12:21 51°34.702 2°32.39 -999 -999 -999 -999 -999
2008-02-25 12:22 51°34.494 2°32.297 -999 -999 -999 -999 -999
2008-02-25 12:23 51°34.288 2°32.205 -999 -999 -999 -999 -999
2008-02-25 12:24 51°34.081 2°32.114 -999 -999 -999 -999 -999
2008-02-25 12:25 51°33.87 2°32.018 -999 -999 -999 -999 -999
2008-02-25 12:26 51°33.665 2°31.926 -999 -999 -999 -999 -999
2008-02-25 12:27 51°33.457 2°31.836 -999 -999 -999 -999 -999
2008-02-25 12:28 51°33.249 2°31.748 -999 -999 -999 -999 -999
2008-02-25 12:29 51°33.041 2°31.66 -999 -999 -999 -999 -999
2008-02-25 12:30 51°32.834 2°31.574 -999 -999 -999 -999 -999
2008-02-25 12:31 51°32.625 2°31.506 -999 -999 -999 -999 -999
2008-02-25 12:32 51°32.415 2°31.538 -999 -999 -999 -999 -999
2008-02-25 12:33 51°32.21 2°31.627 -999 -999 -999 -999 -999
2008-02-25 12:34 51°32.004 2°31.713 -999 -999 -999 -999 -999
2008-02-25 12:35 51°31.798 2°31.801 -999 -999 -999 -999 -999
2008-02-25 12:36 51°31.597 2°31.901 -999 -999 -999 -999 -999
2008-02-25 12:37 51°31.398 2°32.007 -999 -999 -999 -999 -999
2008-02-25 12:38 51°31.203 2°32.122 -999 -999 -999 -999 -999
2008-02-25 12:39 51°31.008 2°32.244 -999 -999 -999 -999 -999
2008-02-25 12:40 51°30.818 2°32.376 -999 -999 -999 -999 -999
2008-02-25 12:41 51°30.634 2°32.524 -999 -999 -999 -999 -999
2008-02-25 12:42 51°30.452 2°32.68 -999 -999 -999 -999 -999
2008-02-25 12:43 51°30.274 2°32.847 -999 -999 -999 -999 -999
2008-02-25 12:44 51°30.114 2°33.05 -999 -999 -999 -999 -999
2008-02-25 12:45 51°29.992 2°33.307 -999 -999 -999 -999 -999
2008-02-25 12:46 51°29.952 2°33.617 -999 -999 -999 -999 -999
2008-02-25 12:47 51°29.942 2°33.933 -999 -999 -999 -999 -999
2008-02-25 12:48 51°29.926 2°34.249 -999 -999 -999 -999 -999
2008-02-25 12:49 51°29.911 2°34.559 -999 -999 -999 -999 -999
2008-02-25 12:50 51°29.897 2°34.874 -999 -999 -999 -999 -999
2008-02-25 12:51 51°29.887 2°35.188 -999 -999 -999 -999 -999
2008-02-25 12:52 51°29.877 2°35.503 -999 -999 -999 -999 -999
2008-02-25 12:53 51°29.868 2°35.82 -999 -999 -999 -999 -999
2008-02-25 12:54 51°29.86 2°36.14 -999 -999 -999 -999 -999
2008-02-25 12:55 51°29.853 2°36.462 -999 -999 -999 -999 -999
2008-02-25 12:56 51°29.844 2°36.786 -999 -999 -999 -999 -999
2008-02-25 12:57 51°29.836 2°37.109 -999 -999 -999 -999 -999
2008-02-25 12:58 51°29.821 2°37.431 -999 -999 -999 -999 -999
2008-02-25 12:59 51°29.724 2°37.71 -999 -999 -999 -999 -999
2008-02-25 13:00 51°29.532 2°37.838 -999 -999 -999 -999 -999
2008-02-25 13:01 51°29.328 2°37.935 -999 -999 -999 -999 -999
2008-02-25 13:02 51°29.126 2°38.034 -999 -999 -999 -999 -999
2008-02-25 13:03 51°28.923 2°38.133 -999 -999 -999 -999 -999
2008-02-25 13:04 51°28.722 2°38.234 -999 -999 -999 -999 -999
2008-02-25 13:05 51°28.522 2°38.336 -999 -999 -999 -999 -999
2008-02-25 13:06 51°28.324 2°38.442 -999 -999 -999 -999 -999
2008-02-25 13:07 51°28.127 2°38.549 -999 -999 -999 -999 -999
2008-02-25 13:08 51°27.932 2°38.658 -999 -999 -999 -999 -999
2008-02-25 13:09 51°27.737 2°38.77 -999 -999 -999 -999 -999
2008-02-25 13:10 51°27.542 2°38.89 -999 -999 -999 -999 -999
2008-02-25 13:11 51°27.354 2°39.034 -999 -999 -999 -999 -999
2008-02-25 13:12 51°27.164 2°39.175 -999 -999 -999 -999 -999
2008-02-25 13:13 51°26.976 2°39.318 -999 -999 -999 -999 -999
2008-02-25 13:14 51°26.789 2°39.463 -999 -999 -999 -999 -999
2008-02-25 13:15 51°26.604 2°39.606 -999 -999 -999 -999 -999
2008-02-25 13:16 51°26.42 2°39.755 -999 -999 -999 -999 -999
2008-02-25 13:17 51°26.237 2°39.902 -999 -999 -999 -999 -999
2008-02-25 13:18 51°26.045 2°39.998 -999 -999 -999 -999 -999
2008-02-25 13:19 51°25.849 2°40.067 -999 -999 -999 -999 -999
2008-02-25 13:20 51°25.662 2°40.175 -999 -999 -999 -999 -999
2008-02-25 13:21 51°25.475 2°40.285 -999 -999 -999 -999 -999
2008-02-25 13:22 51°25.287 2°40.401 -999 -999 -999 -999 -999
2008-02-25 13:23 51°25.1 2°40.522 -999 -999 -999 -999 -999
2008-02-25 13:24 51°24.912 2°40.644 -999 -999 -999 -999 -999
2008-02-25 13:25 51°24.726 2°40.77 -999 -999 -999 -999 -999
2008-02-25 13:26 51°24.538 2°40.894 -999 -999 -999 -999 -999
2008-02-25 13:27 51°24.351 2°41.019 -999 -999 -999 -999 -999
2008-02-25 13:28 51°24.158 2°41.112 -999 -999 -999 -999 -999
2008-02-25 13:29 51°23.96 2°41.174 -999 -999 -999 -999 -999
2008-02-25 13:30 51°23.762 2°41.225 -999 -999 -999 -999 -999
2008-02-25 13:31 51°23.564 2°41.269 -999 -999 -999 -999 -999
2008-02-25 13:32 51°23.367 2°41.304 -999 -999 -999 -999 -999
2008-02-25 13:33 51°23.171 2°41.343 -999 -999 -999 -999 -999
2008-02-25 13:34 51°22.977 2°41.382 -999 -999 -999 -999 -999
2008-02-25 13:35 51°22.782 2°41.419 -999 -999 -999 -999 -999
2008-02-25 13:36 51°22.587 2°41.456 -999 -999 -999 -999 -999
2008-02-25 13:37 51°22.393 2°41.494 -999 -999 -999 -999 -999
2008-02-25 13:38 51°22.199 2°41.531 -999 -999 -999 -999 -999
2008-02-25 13:39 51°22.005 2°41.569 -999 -999 -999 -999 -999
2008-02-25 13:40 51°21.811 2°41.606 -999 -999 -999 -999 -999
2008-02-25 13:41 51°21.617 2°41.646 -999 -999 -999 -999 -999
2008-02-25 13:42 51°21.423 2°41.688 -999 -999 -999 -999 -999
2008-02-25 13:43 51°21.229 2°41.731 -999 -999 -999 -999 -999
2008-02-25 13:44 51°21.036 2°41.773 -999 -999 -999 -999 -999
2008-02-25 13:45 51°20.842 2°41.813 -999 -999 -999 -999 -999
2008-02-25 13:46 51°20.652 2°41.913 -999 -999 -999 -999 -999
2008-02-25 13:47 51°20.5 2°42.129 -999 -999 -999 -999 -999
2008-02-25 13:48 51°20.385 2°42.414 -999 -999 -999 -999 -999
2008-02-25 13:49 51°20.295 2°42.713 -999 -999 -999 -999 -999
2008-02-25 13:50 51°20.212 2°43.01 -999 -999 -999 -999 -999
2008-02-25 13:51 51°20.127 2°43.31 -999 -999 -999 -999 -999
2008-02-25 13:52 51°20.04 2°43.609 -999 -999 -999 -999 -999
2008-02-25 13:53 51°19.952 2°43.907 -999 -999 -999 -999 -999
2008-02-25 13:54 51°19.865 2°44.206 -999 -999 -999 -999 -999
2008-02-25 13:55 51°19.779 2°44.506 -999 -999 -999 -999 -999
2008-02-25 13:56 51°19.689 2°44.812 -999 -999 -999 -999 -999
2008-02-25 13:57 51°19.593 2°45.124 -999 -999 -999 -999 -999
2008-02-25 13:58 51°19.493 2°45.442 -999 -999 -999 -999 -999
2008-02-25 13:59 51°19.389 2°45.765 -999 -999 -999 -999 -999
2008-02-25 14:00 51°19.288 2°46.088 -999 -999 -999 -999 -999
2008-02-25 14:01 51°19.187 2°46.404 -999 -999 -999 -999 -999
2008-02-25 14:02 51°19.088 2°46.722 -999 -999 -999 -999 -999
2008-02-25 14:03 51°18.987 2°47.034 -999 -999 -999 -999 -999
2008-02-25 14:04 51°18.888 2°47.347 -999 -999 -999 -999 -999
2008-02-25 14:05 51°18.789 2°47.66 -999 -999 -999 -999 -999
2008-02-25 14:06 51°18.69 2°47.972 -999 -999 -999 -999 -999
2008-02-25 14:07 51°18.592 2°48.287 -999 -999 -999 -999 -999
2008-02-25 14:08 51°18.495 2°48.608 -999 -999 -999 -999 -999
2008-02-25 14:09 51°18.407 2°48.936 -999 -999 -999 -999 -999
2008-02-25 14:10 51°18.323 2°49.272 -999 -999 -999 -999 -999
2008-02-25 14:11 51°18.24 2°49.609 -999 -999 -999 -999 -999
2008-02-25 14:12 51°18.157 2°49.939 -999 -999 -999 -999 -999
2008-02-25 14:13 51°18.076 2°50.271 -999 -999 -999 -999 -999
2008-02-25 14:14 51°17.996 2°50.605 -999 -999 -999 -999 -999
2008-02-25 14:15 51°17.913 2°50.936 -999 -999 -999 -999 -999
2008-02-25 14:16 51°17.819 2°51.26 -999 -999 -999 -999 -999
2008-02-25 14:17 51°17.711 2°51.568 -999 -999 -999 -999 -999
2008-02-25 14:18 51°17.576 2°51.835 -999 -999 -999 -999 -999
2008-02-25 14:19 51°17.426 2°52.075 -999 -999 -999 -999 -999
2008-02-25 14:20 51°17.249 2°52.236 -999 -999 -999 -999 -999
2008-02-25 14:21 51°17.064 2°52.369 -999 -999 -999 -999 -999
2008-02-25 14:22 51°16.882 2°52.504 -999 -999 -999 -999 -999
2008-02-25 14:23 51°16.7 2°52.64 -999 -999 -999 -999 -999
2008-02-25 14:24 51°16.517 2°52.784 -999 -999 -999 -999 -999
2008-02-25 14:25 51°16.333 2°52.925 -999 -999 -999 -999 -999
2008-02-25 14:26 51°16.151 2°53.066 -999 -999 -999 -999 -999
2008-02-25 14:27 51°15.968 2°53.211 -999 -999 -999 -999 -999
2008-02-25 14:28 51°15.787 2°53.358 -999 -999 -999 -999 -999
2008-02-25 14:29 51°15.606 2°53.503 -999 -999 -999 -999 -999
2008-02-25 14:30 51°15.425 2°53.646 -999 -999 -999 -999 -999
2008-02-25 14:31 51°15.248 2°53.795 -999 -999 -999 -999 -999
2008-02-25 14:32 51°15.073 2°53.955 -999 -999 -999 -999 -999
2008-02-25 14:33 51°14.901 2°54.136 -999 -999 -999 -999 -999
2008-02-25 14:34 51°14.737 2°54.332 -999 -999 -999 -999 -999
2008-02-25 14:35 51°14.582 2°54.548 -999 -999 -999 -999 -999
2008-02-25 14:36 51°14.453 2°54.818 -999 -999 -999 -999 -999
2008-02-25 14:37 51°14.337 2°55.106 -999 -999 -999 -999 -999
2008-02-25 14:38 51°14.198 2°55.339 -999 -999 -999 -999 -999
2008-02-25 14:39 51°14.092 2°55.438 -999 -999 -999 -999 -999
2008-02-25 14:40 51°14.021 2°55.496 -999 -999 -999 -999 -999
2008-02-25 14:41 51°13.953 2°55.549 -999 -999 -999 -999 -999
2008-02-25 14:42 51°13.88 2°55.599 -999 -999 -999 -999 -999
2008-02-25 14:43 51°13.806 2°55.653 -999 -999 -999 -999 -999
2008-02-25 14:44 51°13.742 2°55.731 -999 -999 -999 -999 -999
2008-02-25 14:45 51°13.692 2°55.828 -999 -999 -999 -999 -999
2008-02-25 14:46 51°13.672 2°55.916 -999 -999 -999 -999 -999
2008-02-25 14:47 51°13.668 2°55.946 -999 -999 -999 -999 -999